Theta_e
321 320 322 323 324 323 322 321 321 320 319 318 317 315 313 312 310 307 306 305 305 304
314 316 318 320 321 321 319 317 318 318 317 316 317 316 313 311 307 305 304 304 304 303
308 310 312 312 311 310 310 310 312 312 312 311 310 310 310 307 306 304 303 302 302 302
304 304 303 304 305 304 305 305 305 307 308 307 307 306 305 304 304 302 302 301 300 300
298 299 298 298 299 299 299 299 299 299 299 299 298 298 297 297 299 298 297 299 298 298
294 294 293 293 294 294 293 293 293 292 292 292 292 292 291 292 292 292 292 292 292 293
289 289 289 289 289 289 289 288 288 288 287 288 288 288 286 287 288 288 289 290 290 291
285 285 285 284 284 283 283 284 284 283 283 283 285 287 285 285 285 285 285 286 287 288
282 282 282 282 282 282 282 282 282 282 282 281 283 289 289 287 284 285 285 284 285 286
281 281 281 281 281 281 281 281 281 281 281 281 282 288 288 288 284 284 284 284 284 285
279 279 279 279 279 279 280 280 281 281 281 281 282 287 288 287 284 283 284 284 284 284
278 277 277 275 277 278 278 279 280 281 280 279 281 286 287 285 282 283 282 283 283 284
277 275 274 276 276 277 278 278 279 279 279 278 279 283 285 284 282 281 282 282 283 284
276 274 275 275 276 276 276 277 276 277 276 277 278 279 283 283 281 280 279 279 280 281
Wind_Speed
8 5 4 7 5 7 7 7 6 7 6 7 6 7 8 6 6 7 6 7 6 4
5 6 4 4 4 4 4 4 5 5 6 6 7 7 7 5 5 5 4 4 4 5
6 6 7 5 6 6 5 4 5 5 4 5 4 3 4 3 3 3 3 3 4 4
8 10 8 8 7 7 7 7 7 6 5 6 5 5 5 5 4 2 1 1 3 4
8 8 8 8 8 7 8 7 7 7 8 7 6 6 6 5 4 3 3 3 3 3
9 8 8 8 8 9 9 8 8 7 7 6 6 6 6 5 4 4 3 3 3 4
7 7 7 6 8 8 7 7 7 7 7 7 6 6 6 6 5 4 4 4 4 4
6 6 6 7 7 7 7 7 7 7 7 6 6 4 5 4 4 4 4 4 4 5
6 6 6 6 6 7 7 6 6 7 6 7 4 11 11 8 4 4 4 5 5 5
6 7 6 5 6 7 6 5 7 6 6 6 5 12 11 10 4 4 4 4 4 4
6 6 6 5 7 6 4 5 5 6 6 5 5 13 11 5 1 2 3 4 4 4
5 5 5 5 6 4 4 6 6 4 5 4 2 13 13 9 2 3 2 3 3 4
5 4 5 5 6 4 4 5 4 4 4 4 6 15 16 14 6 8 7 8 8 11
4 5 5 5 4 3 4 6 5 6 5 5 8 9 17 18 7 6 7 6 7 6
Wind_Direction
190 189 190 171 176 186 188 195 192 191 190 197 186 193 193 199 203 193 204 208 209 213
117 140 149 134 145 158 150 159 171 179 192 196 204 201 193 195 193 174 192 202 206 224
69 83 71 63 75 80 77 79 90 91 101 91 88 107 147 139 130 179 200 203 212 222
79 74 75 72 67 69 69 63 68 67 73 75 77 76 82 75 72 72 37 272 253 258
80 83 84 80 77 75 74 60 65 68 68 61 59 55 62 71 59 43 15 341 320 287
78 80 79 79 81 79 81 75 69 72 71 69 64 66 56 61 51 35 11 347 333 318
79 84 85 83 80 76 70 77 72 66 67 64 61 58 47 34 25 15 355 336 312 293
81 75 75 74 77 82 78 77 74 71 60 57 57 39 44 33 20 6 339 313 297 283
80 74 76 83 82 77 71 68 68 60 60 54 47 34 26 16 3 357 348 338 326 328
92 90 73 62 66 67 64 63 60 54 47 44 34 29 24 10 9 351 344 325 318 320
79 84 81 75 66 59 55 54 50 44 38 32 24 22 17 20 356 13 341 328 320 314
84 82 78 72 65 45 57 55 41 21 18 21 353 22 16 23 14 19 344 326 295 302
96 99 87 76 61 34 31 53 46 39 23 23 26 20 21 20 9 4 358 350 339 326
70 83 79 89 82 82 65 56 55 50 22 19 21 13 19 16 13 344 334 323 322 321